This demonstration page uses our WeatherBlox Daily Observations layout. Learn more.

Left ArrowRight Arrow

38.89511, -77.03637

Hourly Observations for May 3, 2017

Temp ( °F °C ) Dew Point ( °F °C ) Humidity (%) Winds ( mph kmh ) Pressure ( in mb ) Visibility ( mi km ) Precip ( " mm )
12:52 am 00:52 Mostly Cloudy 63 17.2 41 5 45 45 SW 5 7 29.84 1011 10 16 0.00 0.00
1:52 am 01:52 Cloudy 64 17.8 42 5.6 45 45 Calm 29.85 1011 10 16 0.00 0.00
2:52 am 02:52 Mostly Cloudy 64 17.8 39 3.9 40 40 WNW 8 13 29.86 1011 10 16 0.00 0.00
3:52 am 03:52 Mostly Cloudy 65 18.3 39 3.9 39 39 W 8 13 29.87 1011 10 16 0.00 0.00
4:52 am 04:52 Mostly Clear 63 17.2 40 4.4 43 43 WNW 9 15 29.89 1012 10 16 0.00 0.00
5:52 am 05:52 Mostly Clear 61 16.1 42 5.6 50 50 NW 13 20 29.91 1013 10 16 0.00 0.00
6:52 am 06:52 Mostly Sunny 61 16.1 42 5.6 50 50 NW 10 17 29.94 1014 10 16 0.00 0.00
7:52 am 07:52 Mostly Sunny 62 16.7 41 5 46 46 NW 15 24 29.96 1015 10 16 0.00 0.00
8:52 am 08:52 Mostly Sunny 63 17.2 40 4.4 43 43 NW 21 33 29.99 1016 10 16 0.00 0.00
9:52 am 09:52 Mostly Sunny 63 17.2 36 2.2 37 37 WNW 21 33 30.02 1017 10 16 0.00 0.00
10:52 am 10:52 Mostly Sunny 64 17.8 36 2.2 35 35 W 20 31 30.04 1017 10 16 0.00 0.00
11:52 am 11:52 Partly Cloudy 63 17.2 35 1.7 35 35 WNW 12 19 30.06 1018 10 16 0.00 0.00
12:52 pm 12:52 Mostly Cloudy 65 18.3 36 2.2 34 34 NW 16 26 30.06 1018 10 16 0.00 0.00
1:52 pm 13:52 Partly Cloudy 65 18.3 36 2.2 34 34 NW 24 39 30.08 1019 10 16 0.00 0.00
2:52 pm 14:52 Mostly Cloudy 66 18.9 38 3.3 36 36 NW 21 33 30.09 1019 10 16 0.00 0.00
3:52 pm 15:52 Mostly Sunny 66 18.9 38 3.3 36 36 NW 16 26 30.09 1019 10 16 0.00 0.00
4:52 pm 16:52 Mostly Sunny 65 18.3 37 2.8 36 36 NNW 17 28 30.07 1018 10 16 0.00 0.00
5:52 pm 17:52 Mostly Sunny 65 18.3 37 2.8 36 36 WNW 12 19 30.07 1018 10 16 0.00 0.00
6:52 pm 18:52 Partly Cloudy 64 17.8 36 2.2 35 35 NW 9 15 30.10 1019 10 16 0.00 0.00
7:52 pm 19:52 Partly Cloudy 62 16.7 37 2.8 40 40 WNW 8 13 30.14 1021 10 16 0.00 0.00
8:52 pm 20:52 Mostly Clear 61 16.1 37 2.8 41 41 NW 9 15 30.18 1022 10 16 0.00 0.00
9:52 pm 21:52 Mostly Clear 59 15 39 3.9 48 48 N 7 11 30.19 1022 10 16 0.00 0.00
10:52 pm 22:52 Clear 59 15 40 4.4 49 49 NNW 6 9 30.19 1022 10 16 0.00 0.00
11:52 pm 23:52 Mostly Clear 58 14.4 39 3.9 50 50 N 3 6 30.19 1022 10 16 0.00 0.00

Powered by AerisWeather